Regional Weather Roundup
Issued by NWS

Home | Current Version | Previous Version | Graphics & Text | Print | Product List | Glossary Off
Versions: 1 2 3 4 5 6 7 8 9 10 11 12 13 14 15 16 17 18 19 20 21 22 23 24 25 26 27 28 29 30 31 32 33 34 35 36 37 38 39 40 41 42 43 44 45 46 47 48 49 50

702
ASUS43 KLSX 241657
RWRMO

WEATHER SUMMARY FOR MISSOURI
NATIONAL WEATHER SERVICE SPRINGFIELD MO
1200 PM CDT MON JUL 24 2017

NOTE: "FAIR" INDICATES FEW OR NO CLOUDS BELOW 12,000 FEET WITH NO
       SIGNIFICANT WEATHER AND/OR OBSTRUCTIONS TO VISIBILITY.
       CURRENT SKY AND/OR WEATHER CONDITIONS ARE NOT AVAILABLE FOR
       CHILLICOTHE AND FARMINGTON.

MOZ001>031-035>038-043-044-053-054-241800-
...NORTHERN AND WESTERN MISSOURI...

CITY           SKY/WX    TMP DP  RH WIND       PRES   REMARKS
KANSAS CTY INT FAIR      81  66  60 VRB5      30.02F
LEE`S SUMMIT   FAIR      82  68  62 MISG      30.02F
ST JOSEPH      FAIR      82  66  58 VRB6      30.01F
CHILLICOTHE      N/A     80  66  62 VRB5      30.03S

$$
MOZ066>068-077>081-088>096-101>105-241800-
...SOUTHWEST MISSOURI...

CITY           SKY/WX    TMP DP  RH WIND       PRES   REMARKS
SPRINGFIELD    FAIR      90  71  53 N5        30.00S HX  96
JOPLIN         FAIR      90  72  55 VRB3      30.00S HX  97
BRANSON        MOSUNNY   90  70  51 N5        30.02F HX  95

$$
MOZ032>034-039>042-045>050-055>058-069>072-241800-
...CENTRAL MISSOURI...

CITY           SKY/WX    TMP DP  RH WIND       PRES   REMARKS
COLUMBIA       NOT AVBL
JEFFERSON CITY FAIR      85  67  54 NE5       29.98S
ROLLA          FAIR      86  71  60 N5        29.99S HX  91
SEDALIA        FAIR      84  70  62 N9        30.02S
WARRENSBURG    FAIR      81  64  57 N7        30.00

$$
MOZ051-052-059>065-241800-
...EAST CENTRAL MISSOURI...

CITY           SKY/WX    TMP DP  RH WIND       PRES   REMARKS
ST LOUIS INTL  FAIR      88  65  46 NW8       29.97F HX  90

$$
MOZ072>076-082>087-097>100-106>115-241800-
...SOUTH CENTRAL AND SOUTHEAST MISSOURI...

CITY           SKY/WX    TMP DP  RH WIND       PRES   REMARKS
CAPE GIRARDEAU FAIR      89  70  53 VRB5      29.94F HX  94
POPLAR BLUFF   FAIR      88  76  67 CALM      29.94F HX  99
WEST PLAINS    FAIR      90  64  42 CALM      30.00F HX  91

$$



USA.gov is the U.S. government's official web portal to all federal, state and local government web resources and services.